SL-14 DEB, 45296

Orbit data source: Space-Track

SL-14 DEB, 45296 is space debris in LEO originally from a launch on Thu, 15 Aug 1991 UTC launched from the Plesetsk Missile And Space Complex (PKMTR). Debris objects in space refer to the collection of defunct objects orbiting the Earth. Examples of debris include non-operational satellites, rocket bodies, and fragments generated from explosions, collisions, or faulty payload assembly.

Loading next visibility...
Identifier
45296, 1991-056AJ
Orbit
LEO
Last TLE update
16 hours ago
Origin
Manufacturer
Unknown
Mission
Spacecraft
Bus & Motor
Unknown
Mass
Unknown
Launch date (UTC)
1991-08-15 (34 years ago)
Launch vehicle
Unknown
Launch site
Plesetsk Missile And Space Complex (PKMTR)
Object type
Payload
Rocket body
Debris
Shape & HBR
Unknown
Radar Cross Section
Small (<0.1 m²)

Expand to show TLE details & history

TLE from 16 hours ago
0 SL-14 DEB
1 45296U 91056AJ  25128.57396719  .00004379  00000-0  39205-2 0  9996
2 45296  82.6469 331.9267 0201963 323.0895  35.6500 13.75366592258567
Epoch: 2025-05-08T13:46Z
Definitive object data (Epoch: 2025-05-08T13:46:30.765Z)
Latitude
0.00001°
Longitude
-101.344°
Altitude
863.521 km
Speed
7.481 km/s
True Right ascension
22h 07m 42s
True Declination
0° 00' 00"
Sunlit
Object was in daylight at TLE epoch
Visualization TLE readout
Latitude
33.95945°
Longitude
-96.89538°
Altitude
938.505 km
Speed
7.409 km/s
Apparent Right ascension
23h 55m 01s
Apparent Declination
0° 01' 20"
Sunlit
Object is in daylight
Visualization observer readout
Local Sidereal Time
13:47:43
Azimuth
39.867° NE
Elevation
-42.56°
Doppler factor
1
Orbital elements
Apogee altitude
1,126.082 km
Perigee altitude
828.968 km
Semi-major axis
7,355.662 km
Eccentricity
0.0201963
Inclination
82.6469°
RAAN
331.9267°
Arg. of periapsis
323.0895°
True anomaly
37.02696°
Mean anomaly
35.65°
Eccentric anomaly
36.33564°
Mean motion
3.44041 °/min
BSTAR
0.0039205
Orbital period
104.64 mins
Loading maneuver chart data...
Loading SW <> Apogee altitude chart data...
Loading historical data...
Loading historical data...
Loading historical data...
Loading historical data...
Loading historical data...
Loading historical data...
Loading historical data...

SL-14 DEB Visibility forecast

Observer location: undefined°, undefined°

Span
Click to sort rows by Start time (UTC) header in descending order
Start Az.
Max El. time (UTC)
Max El. Az.
Max El.
End time (UTC)
End Az.
4 mins2025-05-09 12:38:00.910Z99.973° ESE2025-05-09 12:40:00.910Z79.659° E12.64°2025-05-09 12:42:00.910Z59.571° ENE
10 mins2025-05-09 14:20:00.910Z190.32° SSW2025-05-09 14:25:00.910Z331.822° NNW44.206°2025-05-09 14:30:00.910Z5.192° NNE
5 mins2025-05-09 23:34:00.910Z44.834° NE2025-05-09 23:36:00.910Z63.297° ENE14.222°2025-05-09 23:39:00.910Z90.382° ESE
12 mins2025-05-10 01:17:00.910Z354.221° N2025-05-10 01:23:00.910Z141.475° SSE44.646°2025-05-10 01:29:00.910Z172.11° S
6 mins2025-05-10 03:05:00.910Z301.264° NW2025-05-10 03:07:00.910Z282.47° WNW15.181°2025-05-10 03:11:00.910Z246.952° WSW
|